Location: Arroyo de San Miguel
(40.9167°N, 4.6667°W)
Time: 14:28:59
(UTC+00:00)

Gbstr 26 Del rocket - Pass Details

Date: 19 May 2025
Orbit: 490 x 1223 km, 51.8° (Epoch: 17 June)

Event Time Altitude Azimuth Distance (km) Brightness Sun altitude
Rises 20:10:24 0° 304° (NW) 3,588 9.8 -6.8°
Reaches altitude 10° 20:13:14 10° 302° (WNW) 2,517 8.0 -7.3°
Maximum altitude 20:18:58 62° 223° (SW) 831 3.8 -8.1°
Enters shadow 20:23:34 10° 143° (SE) 2,027 5.1 -8.8°
